Weather in Kaspiysk

Russia / Republic of Dagestan     42°53′26″N   47°38′08″E
temp.,
°C
wind,
m/s
gust,
m/s
humid.,
%
clouds,
%
prec.,
mm/h
press.,
hPa
HPBL,
m
28 june, tue
tue2800:00+23nw1115783 0.1 1006243
03:00+22wnw1216809 0.1 1006353
06:00+23nw1315780 0.0 1007487
09:00+24nw1113710 0.0 1007321
12:00+24n1013750 0.0 1007332
15:00+23n1014790 0.0 1008358
18:00+24nnw913720 0.0 1009303
21:00+24nw796338 0.0 1011123
29 june, wed
wed2900:00+23wnw68580 0.0 1011112
03:00+23nw695912 0.0 1010142
06:00+22wnw710610 0.0 1011205
09:00+24nw6856100 0.0 1012152
12:00+25nne566278 0.0 1011153
15:00+23ne6886100 0.0 1012280
18:00+23nne4583100 0.0 1013333
21:00+22ne348198 0.0 1014359
30 june, thu
thu3000:00+22ne3377100 0.0 1014363
03:00+22ene1370100 0.0 1014348
06:00+22ese126612 0.0 1015334
09:00+22ese23560 0.0 1014394
12:00+23e55540 0.0 1014556
15:00+23ese56580 0.0 1013596
18:00+23ese44621 0.0 1013373
21:00+22se23631 0.0 101498
1 july, fri
fri100:00+22sse33616 0.0 1013231
03:00+22se3360100 0.0 1013357
06:00+22sse446024 0.0 1013427
09:00+22se445565 0.0 1013461
12:00+22ese335267 0.0 1014405
15:00+23ene3250100 0.0 1014412
18:00+23sse2256100 0.0 101451
21:00+23sw4456100 0.0 101587
2 july, sat
sat200:00+24sw4551100 0.0 101541
03:00+24sw3453100 0.0 101425
06:00+24e1157100 0.0 101511
09:00+23sse556291 0.0 1016148
12:00+23se566510 0.0 1016241
15:00+23se56675 0.0 1015318
18:00+23ese56701 0.0 1016298
21:00+22ese667826 0.0 1017440